| time (UTC) | temp F | wind direction | speed MPH | gust MPH | rain 1hr in | rain 24hr in | rain mn in | humidity % | barometer mb |
| 20260906000022 | 81 | 0.0 | 0.0 | 0.00 | 0.72 | 0.72 | 84 | 1011.7 | |
| 20260905234525 | 82 | 0.0 | 0.0 | 0.00 | 0.72 | 0.72 | 83 | 1012.0 | |
| 20260905233046 | 83 | 0.0 | 0.0 | 0.00 | 0.72 | 0.72 | 84 | 1012.1 | |
| 20260905231534 | 83 | 0.0 | 0.0 | 0.00 | 0.72 | 0.72 | 84 | 1011.7 | |
| 20260905230017 | 83 | 0.0 | 0.0 | 0.00 | 0.72 | 0.72 | 83 | 1011.2 | |
| 20260905224523 | 83 | 0.0 | 0.0 | 0.00 | 0.72 | 0.72 | 83 | 1011.1 | |
| 20260905223026 | 84 | 0.0 | 0.0 | 0.00 | 0.72 | 0.72 | 84 | 1011.4 | |
| 20260905221516 | 84 | 0.0 | 1.0 | 0.00 | 0.72 | 0.72 | 83 | 1011.1 | |
| 20260905220020 | 84 | 360 | 0.0 | 2.0 | 0.00 | 0.72 | 0.72 | 82 | 1011.3 |
| 20260905214526 | 84 | 360 | 0.0 | 0.0 | 0.00 | 0.72 | 0.72 | 83 | 1011.1 |
| 20260905213029 | 84 | 360 | 0.0 | 5.0 | 0.00 | 0.72 | 0.72 | 79 | 1011.1 |
| 20260905211516 | 85 | 360 | 1.0 | 3.0 | 0.00 | 0.72 | 0.72 | 81 | 1011.3 |
| 20260905210040 | 86 | 360 | 1.0 | 4.0 | 0.00 | 0.72 | 0.72 | 78 | 1011.5 |
| 20260905204527 | 86 | 360 | 1.0 | 4.0 | 0.00 | 0.72 | 0.72 | 80 | 1011.4 |
| 20260905203010 | 87 | 360 | 2.0 | 4.0 | 0.00 | 0.72 | 0.72 | 81 | 1011.6 |
| 20260905201535 | 87 | 360 | 2.0 | 5.0 | 0.00 | 0.72 | 0.72 | 76 | 1011.6 |
| 20260905200018 | 87 | 360 | 3.0 | 8.0 | 0.00 | 0.72 | 0.72 | 78 | 1011.9 |
| 20260905194520 | 88 | 360 | 1.0 | 6.0 | 0.00 | 0.72 | 0.72 | 80 | 1011.8 |
| 20260905193027 | 85 | 360 | 4.0 | 8.0 | 0.00 | 0.72 | 0.72 | 85 | 1012.0 |
| 20260905191512 | 84 | 360 | 2.0 | 6.0 | 0.00 | 0.72 | 0.72 | 86 | 1012.2 |
| 20260905190025 | 84 | 360 | 0.0 | 5.0 | 0.00 | 0.72 | 0.72 | 87 | 1012.3 |
| 20260905184509 | 84 | 360 | 0.0 | 0.0 | 0.00 | 0.72 | 0.72 | 80 | 1012.5 |
| 20260905183018 | 84 | 360 | 1.0 | 2.0 | 0.00 | 0.72 | 0.72 | 78 | 1012.6 |
| 20260905181521 | 83 | 360 | 1.0 | 3.0 | 0.01 | 0.72 | 0.72 | 85 | 1012.9 |
| 20260905180028 | 82 | 360 | 0.0 | 1.0 | 0.48 | 0.72 | 0.72 | 84 | 1013.2 |
| 20260905174513 | 81 | 360 | 0.0 | 2.0 | 0.72 | 0.72 | 0.72 | 91 | 1013.3 |
| 20260905173018 | 79 | 360 | 0.0 | 0.0 | 0.72 | 0.72 | 0.72 | 90 | 1013.6 |
| 20260905171521 | 79 | 360 | 2.0 | 9.0 | 0.70 | 0.70 | 0.70 | 84 | 1014.1 |
| 20260905170016 | 85 | 360 | 4.0 | 15.0 | 0.22 | 0.22 | 0.22 | 73 | 1014.4 |
| 20260905164525 | 89 | 360 | 2.0 | 6.0 | 0.00 | 0.00 | 0.00 | 71 | 1014.0 |
| 20260905163012 | 87 | 360 | 1.0 | 3.0 | 0.00 | 0.00 | 0.00 | 79 | 1013.8 |
| 20260905161537 | 84 | 360 | 3.0 | 5.0 | 0.00 | 0.00 | 0.00 | 83 | 1014.0 |
| 20260905160019 | 83 | 360 | 0.0 | 0.0 | 0.00 | 0.00 | 0.00 | 86 | 1014.0 |
| 20260905154524 | 83 | 360 | 0.0 | 0.0 | 0.00 | 0.00 | 0.00 | 85 | 1014.1 |
| 20260905153019 | 83 | 360 | 0.0 | 0.0 | 0.00 | 0.00 | 0.00 | 85 | 1014.0 |
| 20260905151545 | 83 | 360 | 0.0 | 3.0 | 0.00 | 0.00 | 0.00 | 85 | 1014.0 |
| 20260905150047 | 83 | 360 | 1.0 | 4.0 | 0.00 | 0.00 | 0.00 | 84 | 1014.0 |
| 20260905144530 | 82 | 360 | 0.0 | 2.0 | 0.00 | 0.00 | 0.00 | 87 | 1014.0 |
| 20260905143010 | 81 | 360 | 0.0 | 2.0 | 0.00 | 0.00 | 0.00 | 90 | 1014.0 |
| 20260905141518 | 80 | 360 | 0.0 | 0.0 | 0.00 | 0.00 | 0.00 | 92 | 1013.9 |
| 20260905140023 | 80 | 360 | 1.0 | 2.0 | 0.00 | 0.00 | 0.00 | 93 | 1013.9 |
| 20260905134524 | 79 | 360 | 0.0 | 4.0 | 0.00 | 0.00 | 0.00 | 93 | 1013.8 |
| 20260905133011 | 78 | 360 | 1.0 | 3.0 | 0.00 | 0.00 | 0.00 | 93 | 1013.7 |
| 20260905131516 | 78 | 355 | 0.0 | 2.0 | 0.00 | 0.00 | 0.00 | 92 | 1013.7 |
| 20260905130025 | 77 | 355 | 0.0 | 2.0 | 0.00 | 0.00 | 0.00 | 92 | 1013.5 |
| 20260905124524 | 77 | 355 | 0.0 | 0.0 | 0.00 | 0.00 | 0.00 | 92 | 1013.3 |
| 20260905123010 | 77 | 355 | 0.0 | 0.0 | 0.00 | 0.00 | 0.00 | 92 | 1013.2 |
| 20260905121517 | 77 | 355 | 0.0 | 0.0 | 0.00 | 0.00 | 0.00 | 92 | 1013.2 |
| 20260905120022 | 77 | 355 | 0.0 | 0.0 | 0.00 | 0.00 | 0.00 | 91 | 1013.0 |
| 20260905114523 | 77 | 355 | 0.0 | 0.0 | 0.00 | 0.00 | 0.00 | 91 | 1012.7 |
| 20260905113032 | 77 | 360 | 0.0 | 0.0 | 0.00 | 0.00 | 0.00 | 91 | 1012.6 |
| 20260905111515 | 77 | 360 | 0.0 | 0.0 | 0.00 | 0.00 | 0.00 | 91 | 1012.4 |
| 20260905110023 | 77 | 360 | 0.0 | 0.0 | 0.00 | 0.00 | 0.00 | 91 | 1012.3 |
| 20260905104525 | 77 | 360 | 0.0 | 0.0 | 0.00 | 0.00 | 0.00 | 91 | 1012.3 |
| 20260905103013 | 77 | 360 | 0.0 | 0.0 | 0.00 | 0.00 | 0.00 | 91 | 1012.4 |
| 20260905101517 | 77 | 360 | 0.0 | 0.0 | 0.00 | 0.00 | 0.00 | 91 | 1012.3 |
| 20260905100026 | 77 | 360 | 0.0 | 0.0 | 0.00 | 0.00 | 0.00 | 91 | 1012.2 |
| 20260905094526 | 77 | 360 | 0.0 | 0.0 | 0.00 | 0.00 | 0.00 | 90 | 1012.1 |
| 20260905093015 | 78 | 360 | 0.0 | 0.0 | 0.00 | 0.00 | 0.00 | 91 | 1012.3 |
| 20260905091520 | 77 | 360 | 0.0 | 0.0 | 0.00 | 0.00 | 0.00 | 90 | 1012.1 |
| 20260905090029 | 78 | 360 | 0.0 | 0.0 | 0.00 | 0.00 | 0.00 | 90 | 1012.1 |
| 20260905084513 | 78 | 360 | 0.0 | 0.0 | 0.00 | 0.00 | 0.00 | 90 | 1012.0 |
| 20260905083022 | 78 | 360 | 0.0 | 0.0 | 0.00 | 0.00 | 0.00 | 90 | 1012.0 |
| 20260905081543 | 78 | 360 | 0.0 | 0.0 | 0.00 | 0.00 | 0.00 | 90 | 1011.9 |
| 20260905080024 | 78 | 360 | 0.0 | 0.0 | 0.00 | 0.00 | 0.00 | 90 | 1012.0 |
| 20260905074534 | 78 | 360 | 0.0 | 0.0 | 0.00 | 0.00 | 0.00 | 90 | 1012.2 |
| 20260905073016 | 78 | 360 | 0.0 | 0.0 | 0.00 | 0.00 | 0.00 | 90 | 1012.2 |
| 20260905071525 | 78 | 360 | 0.0 | 0.0 | 0.00 | 0.00 | 0.00 | 89 | 1012.4 |
| 20260905070027 | 78 | 360 | 0.0 | 0.0 | 0.00 | 0.00 | 0.00 | 89 | 1012.6 |
| 20260905064515 | 78 | 360 | 0.0 | 0.0 | 0.00 | 0.00 | 0.00 | 89 | 1012.6 |
| 20260905063020 | 78 | 360 | 0.0 | 0.0 | 0.00 | 0.00 | 0.00 | 89 | 1012.8 |
| 20260905061529 | 79 | 360 | 0.0 | 0.0 | 0.00 | 0.00 | 0.00 | 89 | 1012.9 |
| 20260905060031 | 79 | 360 | 0.0 | 0.0 | 0.00 | 0.00 | 0.00 | 88 | 1012.8 |
| 20260905054519 | 79 | 360 | 0.0 | 0.0 | 0.00 | 0.00 | 0.00 | 88 | 1012.8 |
| 20260905053021 | 79 | 360 | 0.0 | 0.0 | 0.00 | 0.00 | 0.00 | 88 | 1012.9 |
| 20260905051529 | 79 | 360 | 0.0 | 0.0 | 0.00 | 0.00 | 0.00 | 87 | 1012.7 |
| 20260905050010 | 79 | 360 | 0.0 | 0.0 | 0.00 | 0.00 | 0.00 | 88 | 1012.8 |
| 20260905044518 | 79 | 360 | 0.0 | 0.0 | 0.00 | 0.00 | 0.00 | 87 | 1012.7 |
| 20260905043023 | 80 | 360 | 0.0 | 0.0 | 0.00 | 0.00 | 0.00 | 87 | 1012.9 |
| 20260905041547 | 80 | 360 | 0.0 | 0.0 | 0.00 | 0.00 | 0.00 | 86 | 1012.9 |
| 20260905040029 | 80 | 360 | 0.0 | 0.0 | 0.00 | 0.00 | 0.00 | 86 | 1013.1 |
| 20260905034513 | 80 | 360 | 0.0 | 1.0 | 0.00 | 0.00 | 0.00 | 86 | 1013.2 |
| 20260905033020 | 80 | 360 | 0.0 | 0.0 | 0.00 | 0.00 | 0.00 | 85 | 1013.2 |
| 20260905031521 | 81 | 360 | 0.0 | 0.0 | 0.00 | 0.00 | 0.00 | 84 | 1013.2 |
| 20260905030028 | 81 | 360 | 0.0 | 0.0 | 0.00 | 0.00 | 0.00 | 84 | 1013.2 |
| 20260905024513 | 81 | 360 | 0.0 | 0.0 | 0.00 | 0.00 | 0.00 | 83 | 1013.0 |
| 20260905023020 | 82 | 360 | 0.0 | 0.0 | 0.00 | 0.00 | 0.00 | 82 | 1012.8 |
| 20260905021523 | 82 | 360 | 0.0 | 0.0 | 0.00 | 0.00 | 0.00 | 81 | 1012.8 |
| 20260905020012 | 83 | 360 | 0.0 | 0.0 | 0.00 | 0.00 | 0.00 | 81 | 1012.7 |
| 20260905014517 | 83 | 360 | 0.0 | 3.0 | 0.00 | 0.00 | 0.00 | 80 | 1012.4 |
| 20260905013021 | 83 | 360 | 1.0 | 3.0 | 0.00 | 0.00 | 0.00 | 79 | 1012.4 |
| 20260905011524 | 84 | 360 | 0.0 | 1.0 | 0.00 | 0.00 | 0.00 | 77 | 1012.2 |
| 20260905010013 | 85 | 360 | 0.0 | 3.0 | 0.00 | 0.00 | 0.00 | 76 | 1012.2 |
| 20260905004516 | 86 | 360 | 2.0 | 3.0 | 0.00 | 0.00 | 0.00 | 75 | 1012.0 |
| 20260905003018 | 86 | 360 | 0.0 | 3.0 | 0.00 | 0.00 | 0.00 | 74 | 1011.6 |
| 20260905001545 | 87 | 360 | 1.0 | 4.0 | 0.00 | 0.00 | 0.00 | 73 | 1011.8 |